Location: Neuvy Saint Sepulchre
(46.5953°N, 1.8122°E)
Time: 22:41:13
(UTC+01:00)

ISS - Pass Details

Date: 24 November 2019
Orbit: 411 x 421 km, 51.6° (Epoch: 13 December)

Event Time Altitude Azimuth Distance (km) Brightness Sun altitude
Rises 19:58:38 0° 257° (WSW) 2,354 1.2 -28.3°
Reaches altitude 10° 20:00:45 10° 262° (W) 1,495 0.0 -28.6°
Enters shadow 20:01:48 18° 267° (W) 1,088 -0.9 -28.8°
